Location: Eppenbrunn
(49.1158°N, 7.5601°E)
Time: 07:33:08
(UTC+00:00)

IGS 5A - Pass Details

Date: 17 June 2021
Orbit: 583 x 587 km, 97.6° (Epoch: 17 July)

Event Time Altitude Azimuth Distance (km) Brightness Sun altitude
Rises 21:19:28 0° 212° (SSW) 2,806 6.7 -11.8°
Reaches altitude 10° 21:22:31 10° 237° (WSW) 1,913 6.1 -12.0°
Maximum altitude 21:24:50 14° 271° (W) 1,644 6.1 -12.2°
Drops below altitude 10° 21:27:09 10° 305° (NW) 1,923 7.2 -12.4°
Sets 21:30:14 0° 330° (NNW) 2,830 9.1 -12.7°
